McCall, ID

6:53 AM MDT on June 25, 2017 (GMT -0600)
McCall

Weather History for KMYL - December, 2010

Change the Weather History Date:

Sunday, December 26, 2010

  Actual Average Record
Temperature  
Mean Temperature 25 °F 18 °F  
Max Temperature 32 °F 27 °F 45 °F (1989)
Min Temperature 18 °F 9 °F -15 °F (1948)
Degree Days  
Heating Degree Days 40 47  
Month to date heating degree days 1057 1200  
Since 1 July heating degree days 3314 3838  
Cooling Degree Days 0 0  
Month to date cooling degree days 0 0  
Year to date cooling degree days 508 25  
Moisture  
Dew Point 25 °F    
Average Humidity 88    
Maximum Humidity 100    
Minimum Humidity 75    
Precipitation  
Precipitation 0.24 in 0.08 in 1.19 in (1933)
Month to date precipitation 3.16 1.72  
Year to date precipitation 21.88 19.76  
Sea Level Pressure  
Sea Level Pressure 29.91 in    
Wind  
Wind Speed 7 mph (SSE)    
Max Wind Speed 21 mph    
Max Gust Speed 24 mph    
Visibility 4 miles    
Events Fog , Snow    
T = Trace of Precipitation, MM = Missing Value Source: NWS Daily Summary

Daily Weather History Graph

Daily Weather History Graph

Search for Another Location

Airport or City:

Trip Planner

Search our weather history database for the weather conditions in past years. The results will help you decide how hot, cold, wet, or windy it might be!

Date:

Astronomy

Dec. 26, 2010 Rise Set
Actual Time 8:21 AM MST 5:08 PM MST
Civil Twilight 7:47 AM MST 5:42 PM MST
Nautical Twilight 7:10 AM MST 6:19 PM MST
Astronomical Twilight 6:34 AM MST 6:55 PM MST
Moon No Moon Rise 11:28 AM MST (12/26)
Length of Visible Light 9h 55m
Length of Day
8h 47m
Waning Gibbous, 66% of the Moon is Illuminated
Dec 26
Waning Gibbous
Dec 27
Last Quarter
Jan 4
New
Jan 12
First Quarter
Jan 19
Full

Hourly Weather History & Observations

Time (MST) Temp. Windchill Dew Point Humidity Pressure Visibility Wind Dir Wind Speed Gust Speed Precip Events Conditions
12:51 AM 21.0 °F 16.2 °F 19.9 °F 96% 29.84 in 10.0 mi NNE 3.5 mph - N/A   Clear
1:51 AM 24.1 °F 19.7 °F 21.0 °F 88% 29.84 in 10.0 mi NNE 3.5 mph - N/A   Clear
2:51 AM 19.0 °F - 16.0 °F 88% 29.87 in 10.0 mi Calm Calm - N/A   Clear
3:51 AM 19.0 °F - 16.0 °F 88% 29.83 in 10.0 mi Calm Calm - N/A   Clear
4:51 AM 19.9 °F - 17.1 °F 89% 29.86 in 10.0 mi Calm Calm - N/A   Clear
5:51 AM 25.0 °F 18.1 °F 21.0 °F 85% 29.89 in 10.0 mi NE 5.8 mph - N/A   Overcast
6:44 AM 26.6 °F 21.2 °F 23.0 °F 86% 29.79 in 2.5 mi ENE 4.6 mph - 0.00 in Snow Light Snow
6:51 AM 27.0 °F 20.5 °F 24.1 °F 89% 29.90 in 1.0 mi East 5.8 mph - 0.00 in Snow Light Snow
6:58 AM 26.6 °F 19.1 °F 24.8 °F 93% 29.80 in 0.8 mi East 6.9 mph - 0.01 in Snow Light Snow
7:04 AM 26.6 °F 22.6 °F 24.8 °F 93% 29.80 in 0.8 mi East 3.5 mph - 0.02 in Snow Light Snow
7:16 AM 26.6 °F 22.6 °F 24.8 °F 93% 29.80 in 0.5 mi ENE 3.5 mph - 0.03 in Fog , Snow Snow
7:51 AM 28.0 °F - 26.1 °F 92% 29.92 in 0.8 mi Calm Calm - 0.09 in Snow Light Snow
8:29 AM 26.6 °F - 26.6 °F 100% 29.82 in 1.0 mi Calm Calm - 0.04 in Snow Light Snow
8:41 AM 26.6 °F - 26.6 °F 100% 29.83 in 0.8 mi Calm Calm - 0.05 in Snow Light Snow
8:51 AM 27.0 °F 23.0 °F 26.1 °F 96% 29.95 in 1.0 mi West 3.5 mph - 0.05 in Snow Light Snow
9:13 AM 28.4 °F - 26.6 °F 93% 29.84 in 2.0 mi Calm Calm - 0.01 in Snow Light Snow
9:26 AM 28.4 °F 23.3 °F 26.6 °F 93% 29.84 in 3.0 mi SW 4.6 mph - 0.01 in Snow Light Snow
9:33 AM 28.4 °F 22.2 °F 26.6 °F 93% 29.85 in 1.8 mi SW 5.8 mph - 0.01 in Snow Light Snow
9:39 AM 28.4 °F 21.2 °F 26.6 °F 93% 29.85 in 0.8 mi SW 6.9 mph - 0.01 in Snow Light Snow
9:51 AM 28.0 °F 22.8 °F 27.0 °F 96% 29.97 in 1.0 mi South 4.6 mph - 0.02 in Snow Light Snow
10:05 AM 30.2 °F 20.2 °F 28.4 °F 93% 29.87 in 0.8 mi SSE 12.7 mph 18.4 mph 0.00 in Snow Light Snow
10:14 AM 30.2 °F 20.2 °F 28.4 °F 93% 29.87 in 1.0 mi SE 12.7 mph - 0.00 in Snow Light Snow
10:24 AM 30.2 °F 19.8 °F 28.4 °F 93% 29.87 in 1.8 mi SE 13.8 mph - 0.00 in Snow Light Snow
10:27 AM 30.2 °F 20.8 °F 28.4 °F 93% 29.87 in 3.0 mi SE 11.5 mph - 0.00 in Snow Light Snow
10:36 AM 30.2 °F 20.2 °F 28.4 °F 93% 29.88 in 9.0 mi SE 12.7 mph - 0.00 in   Mostly Cloudy
10:51 AM 30.0 °F 20.5 °F 28.0 °F 92% 29.97 in 10.0 mi SE 11.5 mph - 0.00 in   Mostly Cloudy
11:42 AM 30.2 °F 20.8 °F 26.6 °F 86% 29.88 in 4.0 mi SSE 11.5 mph - N/A Snow Light Snow
11:45 AM 30.2 °F 21.3 °F 26.6 °F 86% 29.88 in 1.5 mi SSE 10.4 mph - 0.01 in Snow Light Snow
11:51 AM 30.0 °F 20.0 °F 27.0 °F 88% 29.99 in 1.2 mi SSE 12.7 mph - 0.01 in Snow Light Snow
11:56 AM 30.2 °F 20.8 °F 26.6 °F 86% 29.88 in 4.0 mi SSE 11.5 mph - 0.00 in Snow Light Snow
12:28 PM 30.2 °F 23.4 °F 28.4 °F 93% 29.89 in 1.8 mi SSE 6.9 mph - 0.00 in Snow Light Snow
12:35 PM 30.2 °F 22.6 °F 26.6 °F 86% 29.89 in 2.5 mi SSE 8.1 mph - 0.01 in Snow Light Snow
12:51 PM 32.0 °F 21.6 °F 26.1 °F 79% 29.98 in 4.0 mi South 15.0 mph - 0.01 in Snow Light Snow
1:07 PM 32.0 °F 25.6 °F 24.8 °F 75% 29.87 in 10.0 mi SSE 6.9 mph - 0.00 in   Overcast
1:51 PM 32.0 °F 24.8 °F 23.0 °F 69% 29.97 in 10.0 mi SE 8.1 mph - 0.00 in   Overcast
2:23 PM 32.0 °F 26.4 °F 24.8 °F 75% 29.87 in 5.0 mi SSW 5.8 mph - 0.00 in Snow Light Snow
2:45 PM 30.2 °F 20.2 °F 24.8 °F 80% 29.87 in 10.0 mi South 12.7 mph - 0.00 in   Overcast
2:51 PM 30.9 °F 22.2 °F 24.1 °F 76% 29.98 in 10.0 mi South 10.4 mph - 0.00 in   Overcast
3:11 PM 30.2 °F 21.3 °F 26.6 °F 86% 29.88 in 4.0 mi South 10.4 mph - 0.00 in Snow Light Snow
3:14 PM 30.2 °F 20.8 °F 26.6 °F 86% 29.88 in 1.5 mi South 11.5 mph - 0.00 in Snow Light Snow
3:18 PM 30.2 °F 18.9 °F 26.6 °F 86% 29.89 in 0.8 mi South 16.1 mph 23.0 mph 0.00 in Snow Light Snow
3:26 PM 28.4 °F 15.4 °F 26.6 °F 93% 29.90 in 1.2 mi South 19.6 mph 23.0 mph 0.00 in Snow Light Snow
3:36 PM 28.4 °F 18.0 °F 26.6 °F 93% 29.89 in 3.0 mi SSE 12.7 mph - 0.00 in Snow Light Snow
3:42 PM 28.4 °F 19.1 °F 26.6 °F 93% 29.90 in 9.0 mi SSE 10.4 mph - 0.01 in   Overcast
3:51 PM 28.9 °F 19.2 °F 26.1 °F 89% 30.01 in 10.0 mi SE 11.5 mph - 0.01 in   Overcast
4:21 PM 28.4 °F 19.1 °F 26.6 °F 93% 29.90 in 4.0 mi SSE 10.4 mph - 0.00 in Snow Light Snow
4:25 PM 28.4 °F 18.0 °F 26.6 °F 93% 29.90 in 1.8 mi SSE 12.7 mph - 0.00 in Snow Light Snow
4:30 PM 28.4 °F 19.7 °F 26.6 °F 93% 29.90 in 0.8 mi SSE 9.2 mph - 0.00 in Snow Light Snow
4:41 PM 28.4 °F 21.2 °F 26.6 °F 93% 29.90 in 0.5 mi SSE 6.9 mph - 0.00 in Fog , Snow Snow
4:47 PM 28.4 °F 20.4 °F 26.6 °F 93% 29.90 in 0.5 mi South 8.1 mph - 0.01 in Fog , Snow Snow
4:51 PM 28.9 °F 19.8 °F 27.0 °F 92% 30.01 in 0.8 mi South 10.4 mph - 0.01 in Snow Light Snow
4:57 PM 28.4 °F 21.2 °F 26.6 °F 93% 29.90 in 1.2 mi South 6.9 mph - 0.00 in Snow Light Snow
5:07 PM 28.4 °F 20.4 °F 26.6 °F 93% 29.90 in 1.8 mi SSE 8.1 mph - 0.00 in Snow Light Snow
5:11 PM 28.4 °F 20.4 °F 26.6 °F 93% 29.90 in 1.0 mi SSE 8.1 mph - 0.00 in Snow Light Snow
5:16 PM 28.4 °F 19.1 °F 26.6 °F 93% 29.90 in 0.5 mi SSE 10.4 mph - 0.00 in Fog , Snow Snow
5:26 PM 28.4 °F 19.1 °F 26.6 °F 93% 29.90 in 0.8 mi SSE 10.4 mph - 0.01 in Snow Light Snow
5:28 PM 28.4 °F 19.1 °F 26.6 °F 93% 29.90 in 1.2 mi SSE 10.4 mph - 0.01 in Snow Light Snow
5:31 PM 28.4 °F 18.0 °F 26.6 °F 93% 29.90 in 3.0 mi SSE 12.7 mph - 0.01 in Snow Light Snow
6:20 PM 28.4 °F 22.2 °F 28.4 °F 100% 29.91 in 1.5 mi SW 5.8 mph - 0.02 in Snow Light Snow
6:24 PM 28.4 °F 23.3 °F 26.6 °F 93% 29.91 in 0.8 mi SW 4.6 mph - 0.02 in Snow Light Snow
6:33 PM 28.4 °F 19.1 °F 26.6 °F 93% 29.92 in 0.5 mi South 10.4 mph - 0.03 in Fog , Snow Snow
6:36 PM 28.4 °F 18.5 °F 26.6 °F 93% 29.92 in 1.0 mi South 11.5 mph - 0.03 in Snow Light Snow
6:40 PM 28.4 °F 19.1 °F 26.6 °F 93% 29.92 in 1.8 mi South 10.4 mph - 0.03 in Snow Light Snow
6:42 PM 28.4 °F 20.4 °F 26.6 °F 93% 29.92 in 3.0 mi South 8.1 mph - 0.03 in Snow Light Snow
6:51 PM 28.0 °F 21.7 °F 26.1 °F 92% 30.01 in 9.0 mi South 5.8 mph - 0.04 in   Mostly Cloudy
7:51 PM 28.0 °F 20.8 °F 21.0 °F 75% 30.04 in 10.0 mi South 6.9 mph - N/A   Overcast
8:51 PM 26.1 °F - 21.9 °F 84% 30.07 in 10.0 mi Calm Calm - N/A   Overcast
9:51 PM 27.0 °F 18.7 °F 21.9 °F 81% 30.09 in 10.0 mi SSW 8.1 mph - N/A   Overcast
10:51 PM 24.1 °F 12.0 °F 19.9 °F 84% 30.12 in 10.0 mi South 13.8 mph - N/A   Mostly Cloudy
11:51 PM 27.0 °F 14.3 °F 21.9 °F 81% 30.12 in 10.0 mi South 17.3 mph - N/A   Overcast